NapervilleWeather.com

Find the Weather for any City, State  
or Zipcode, or Country:

Naperville, IL Weather
Local Radar

Local Radar

Graphs, Details
Graphs and Gauges
Detailed Weather
Detailed Reports
Ajax Version (old)
Davis Summary
Davis Current Weather Graphs
Davis 24 Hour Weather History
Cumulus

CW7164 Data

Weather Underground
www.awekas.at
Automatic Weather Map System
Latest Naperville, Illinois, weather
Weather For You
Maps
Temperature
Heat Index
Windchill
Humidity
Radar
Dew Point
Wind
Visibility
Visible Satellite
Satellite
Fronts
Snow Depth
Jet Stream
Flight Rules
Forecast Maps
Temperature Forecast
Maximum Temperature Forecast
Minimum Temperature Forecast
Dewpoint Forecast
Prevalent Weather
12Hr Probability of Precip.
Sky Cover
Health Maps
UV Forecast
Air Quality
Peak Air Quality Index
Weather Station
Davis Instruments Vantage Pro2
Current Conditions [Select Refresh to Update]

Updated: 1:10am on 5/30/15

(location)
Currently:
69.8°F

Clear
Clear

High: 70.9 °F< 
(11:59pm
Low: 69.8 °F 
(1:02am)
Wind: NNE 0 mph
Calm
Gust: 0 mph
Today's High Wind: 3 mph (12:42am)
Humidity: 86%
Pressure: 29.93 in  (Steady
Pressure Rate: -0.003 in/hr
Dew Point: 65.4°F
Wind Chill: 69.8 °F
Heat Index (feels like): 74.9 °F
Comfort Level: Comfortable
Temperature Rate:  -0.59°F/hr
 
5 Day Forecast
 
Sat Sun Mon Tue Wed
Clear Clear Clear Clear Clear
Chance T-storms Partly Cloudy Partly Cloudy Partly Cloudy Mostly Cloudy
66 62 65 72 80
42 42 45 54 60

Records and Normals
 
Temperature Forecast Normal Record
High 66 0 0
(0)
Low 42 0 0
(0)
 
 
Weather Advisories
No Warnings
Full Advisory Text...
Weather Map

Web Cam

Almanac
 
Sunrise:  
5:21am
Moonrise: 
5:23pm

Moon Phase:
88%

Sunset: 
8:19pm
Moonset:  
3:39am
 Star Chart...
Rainfall Totals
Hourly Rain 0.00 in
Daily Rain: 0.00 in
Monthly Rain: 4.26 in
Yearly Rain: 9.95 in
Normal Rain, month to date: 0.00 in
Normal Rain, year to date: 0.00 in
Local Weather Exchange Network
Station ID City 
(Click for Map Location)
Neighborhood 
(Click for History)
Last Update (Date & Time) Temperature
 ()
Dew
Point ()
Humidity 
(%)
Wind 
(mph)
from the Wind Gust 
(mph) 
Pressure(in) Hourly
Rain(in)
KILWARRE5 Warrenville Briergate Drive 05/30 00:50:39 73.4 65.0 75 0 North 0 29.99 0.00
KILNAPER15 Naperville Indian Hill Near Jefferson JHS 05/30 00:55:10 69.7 65.0 85 2 WSW 4 29.89 0.00
KILNAPER21 Naperville Saybrook 05/30 00:30:15 70.4 66.0 87 1 SW 2 29.92 0.00
KILNAPER33 Naperville Downtown 05/30 00:50:41 70.7 68.0 91 0 North 0 29.86 0.00
KILNAPER28 Naperville Pawnee Lane 05/30 00:50:28 72.1 65.0 78 0 North 0 30.01 0.00
KILNAPER25 Naperville brushhill-w 05/30 00:48:14 70.3 65.0 84 0 West 3 29.89 0.00
KILNAPER24 Naperville Brush Hill 05/30 00:40:17 70.4 66.0 86 0 SSW 3 29.85 0.00
KILNAPER19 Naperville Brookdale Lakes 05/30 00:55:00 71.1 66.0 84 2 East 6 29.91 0.00
KILNAPER7 Naperville NapervilleWeather.com Near Ogden and Naper Blvd 05/30 00:55:05 69.9 66.0 86 0 NNE 0 29.93 0.00
KILWARRE2 Warrenville Warrenville Neighborhood Weather 05/30 00:42:17 70.8 66.0 84 1 WSW 0 29.88 0.00
KILNAPER42 Naperville Savannah Circle 05/30 00:50:53 72.0 64.0 77 0 North 0 30.01 0.00
KILNAPER38 Naperville East Highlands 05/30 00:54:47 70.7 67.0 89 0 SW 0 30.13 0.00
KILNAPER23 Naperville Naper Blvd at BNSF RR 05/30 00:54:53 69.7 66.0 88 0 WSW 5 29.92 0.00
KILNAPER27 Naperville River Rd and Rickert 05/30 00:54:58 68.9 62.0 78 2 ESE 3 25.75 0.00
KILNAPER30 Naperville Cypress Drive 05/30 00:50:29 73.8 65.0 73 0 North 0 29.78 0.00
KILLISLE10 Lisle Maple Avenue 05/30 00:50:34 70.9 64.0 80 0 North 0 30.01 0.00
KILNAPER46 Naperville Hilton Head Drive 05/30 00:51:06 72.1 62.0 70 0 North 0 29.98 0.00
KILLISLE9 Lisle Park Meadow Drive 05/30 00:50:22 74.1 66.0 74 0 North 0 29.96 0.00
KILWARRE6 Warrenville Summer Lakes 05/30 00:53:05 69.3 65.0 87 0 West 1 29.90 0.00
KILNAPER56 Naperville Ann Reid ECC 05/30 00:52:47 69.6 65.0 84 8 SSW 0 29.87 0.00
KILNAPER9 Naperville 75th St. / Modaff Area 05/30 00:55:08 69.4 66.0 88 0 SE 2 29.90 0.00
KILLISLE7 Lisle Beau Monde Drive 05/30 00:50:19 70.9 65.0 82 0 North 0 30.00 0.00
KILWHEAT8 Wheaton Wheaton Sanitary District 05/30 00:52:13 70.7 66.0 86 0 WSW 2 29.91 0.00
KILWHEAT15 Wheaton Schubert Court 05/30 00:51:04 71.1 62.0 73 0 North 0 29.88 0.00
KILWHEAT11 Wheaton Wheaton SW Orth Ct 05/30 00:55:07 72.0 64.0 77 0 ENE 0 30.07 0.00
KILLOMBA6 Wheaton Danada West 05/30 00:54:22 69.8 64.0 81 2 SSW 10 29.87 0.00
KILAUROR27 Aurora Stonehaven 05/30 00:48:20 68.9 64.0 86 2 South 0 29.76 0.00
KILNAPER35 Naperville Nutmeg Lane 05/30 00:50:36 70.3 66.0 86 0 North 0 30.01 0.00
KILNAPER59 Naperville Naperville/Ranchview 05/30 00:48:17 69.6 65.0 86 2 South 0 29.80 0.00
KILNAPER16 Naperville SE Naperville / NE Clow Arpt 05/30 00:55:08 69.8 65.0 86 1 SW 7 29.93 0.00
KILNAPER51 Naperville Glouceston Lane 05/30 00:50:28 70.5 66.0 86 0 North 0 29.78 0.00
KILNAPER22 Naperville Willow Ridge 05/30 00:43:48 69.6 68.0 95 0 South 0 29.75 0.00
KILNAPER49 Naperville Sutton Circle 05/30 00:50:29 72.9 65.0 75 0 North 0 29.96 0.00
KILWHEAT5 Wheaton N9ABF - West Wheaton 05/30 00:53:21 69.5 64.0 82 0 SSW 4 29.92 0.00
KILGLENE9 Glen Ellyn Valley View 05/30 00:40:34 70.2 65.0 85 2 WSW 0 29.80 0.00
MD1973 Downers Grove APRSWXNET 05/30 00:34:00 70.0 66.0 88 0 South 3 29.91 0.00
KDPA Chicago DuPage Official Station 05/29 23:52:00 72.0 65.0 78 10 SW --- 29.93 ---
KLOT Romeoville Official Station 05/30 00:35:00 70.0 63.0 79 10 SW --- 29.96 ---
KARR Aurora Official Station 05/29 23:52:00 72.0 64.0 76 10 SSW --- 29.94 ---
KJOT Joliet Official Station 05/30 00:35:00 72.0 66.0 81 6 SW --- 29.95 ---
Full Advisory Text
No Warnings

Ambient Weather and Weather Underground
 Never base important decisions on this or any weather information obtained from the Internet
Updated Automatically by Ambient Weather's Virtual Weather Station  V14.01